AirNav   Air Wisconsin Airman Trainee
 
 1408 users online  

Y96 Leo E Goetz County Airport
Onaway, Michigan, USA

GOING TO ONAWAY?


FAA INFORMATION EFFECTIVE 23 MAY 2019

Location

FAA Identifier: Y96
Lat/Long: 45-22-15.0430N / 084-13-30.0520W
45-22.250717N / 084-13.500867W
45.3708453 / -84.2250144
(estimated)
Elevation: 830 ft. / 253 m (estimated)
Variation: 06W (1985)
From city: 1 mile N of ONAWAY, MI
Time zone: UTC -4 (UTC -5 during Standard Time)
Zip code: 49765

Airport Operations

Airport use: Open to the public
Activation date: 04/1940
Control tower: no
ARTCC: MINNEAPOLIS CENTER
FSS: LANSING FLIGHT SERVICE STATION
NOTAMs facility: LAN (NOTAM-D service available)
Attendance: UNATNDD
Wind indicator: yes
Segmented circle: yes

Airport Communications

CTAF: 122.9
WX AWOS-3 at PZQ (18 nm E): 118.125 (989-734-7419)

Nearby radio navigation aids

VOR radial/distance  VOR name  Freq  Var
PLNr136/24.2PELLSTON VORTAC111.8006W
GLRr049/29.5GAYLORD VOR/DME109.2006W
APNr308/33.1ALPENA VORTAC108.8007W

Airport Services

Parking: tiedowns
Airframe service: NONE
Powerplant service: NONE
Bottled oxygen: NONE
Bulk oxygen: NONE

Runway Information

Runway 15/33

Dimensions: 2600 x 60 ft. / 792 x 18 m
Surface: asphalt/L
EXTSV PAVEMENT CRACKING.
Operational restrictions: RY 15/33 CLSD NOV-APR & WHEN SNOW COVERED. NO SNOW REMOVAL.
RUNWAY 15  RUNWAY 33
Latitude: 45-22.133333N45-21.762833N
Longitude: 084-13.566667W084-13.263167W
Elevation: 830.0 ft.830.0 ft.
Traffic pattern: leftleft
Markings: basic, in fair conditionbasic, in fair condition
Obstructions: 16 ft. road, 525 ft. from runway, 177 ft. right of centerline, 20:1 slope to clear40 ft. trees, 201 ft. from runway, 120 ft. left of centerline
25 FT TREES, 0-400 FT DSTC, 120 FT L.

Runway 3/21

Dimensions: 1400 x 100 ft. / 427 x 30 m
Surface: turf, in fair condition
Runway edge markings: RY 3/21 MARKED WITH 3 FT YELLOW CONES.
Operational restrictions: RY 03/21, CLSD NOV-APR & WHEN SNOW COVERED. NO SNOW REMOVAL.
RUNWAY 3  RUNWAY 21
Traffic pattern: leftleft
Obstructions: 41 ft. trees, 396 ft. from runway, 110 ft. right of centerline, 9:1 slope to clear36 ft. trees, 120 ft. from runway, 100 ft. right of centerline, 3:1 slope to clear

Airport Ownership and Management from official FAA records

Ownership: Publicly-owned
Owner: PRESQUE ISLE COUNTY
151 E. HURON RD, P.O. BOX 110
ROGERS CITY, MI 49779
Phone 989-734-4309
Manager: ALAN STILLER
151 E. HURON RD, P.O. BOX 110
ROGERS CITY, MI 49779
Phone (906) 430-7718

Airport Operational Statistics

Aircraft operations: 200/year *
50% transient general aviation
50% local general aviation
* for 12-month period ending 31 December 2014

Additional Remarks

RANDOM 10-20 FT. BRUSH & TREES IN PRIM SFC.
RY 15, 11 FT POWERLINE 750 FT FM THLD 125 FT R OF CNTRLN. RY 33 14 FT POWERLINE, 676 FT FM THLD, APCH RATIO 34:1.
ARPT TO BE CLSD (ABANDONED) MID 2019 - CHECK NOTAMS.

Instrument Procedures

There are no published instrument procedures at Y96.

Some nearby airports with instrument procedures:

KPZQ - Presque Isle County Airport (18 nm E)
KSLH - Cheboygan County Airport (21 nm NW)
6Y1 - Bois Blanc Island Airport (26 nm NW)
KPLN - Pellston Regional Airport of Emmet County (27 nm NW)
KMGN - Harbor Springs Airport (29 nm W)
 
Loc | Ops | Rwys | IFR | FBO | Links
Com | Nav | Svcs | Stats | Notes
Area around Y96 (Leo E Goetz County Airport)
 
Road maps at: MapQuest Bing Google
 
Aerial photo
No photo
 
Sectional chart

 
Airport distance calculator
Flying to Leo E Goetz County Airport? Find the distance to fly.

From to Y96

Sunrise and sunset
Times for 23-May-2019
 Local
(UTC-4)
 Zulu
(UTC)
Morning civil twilight05:2409:24
Sunrise06:0010:00
Sunset21:0801:08
Evening civil twilight21:4301:43

Current date and time
Zulu (UTC)  23-May-2019 16:45:08
Local (UTC-4)  23-May-2019 12:45:08
 
METAR
KPZQ 
18nm E 
231635Z AUTO 27013G24KT 10SM CLR 20/09 A2978 RMK AO2 T02010089
KSLH 
21nm NW 
231635Z AUTO 25013G26KT 10SM CLR 18/08 A2979 RMK AO2 T01820084
KPLN 
27nm NW 
231554Z AUTO 26015G24KT 10SM CLR 17/09 A2980 RMK AO2 PK WND 28028/1544 SLP091 T01720094
KGLR 
29nm SW 
231553Z AUTO 26019G28KT 10SM FEW042 18/08 A2982 RMK AO2 PK WND 25030/1521 SLP096 T01780078
KMGN 
29nm W 
231635Z AUTO 26010G20KT 230V290 10SM CLR 14/07 A2983 RMK AO2 T01420080
KAPN 
33nm SE 
231554Z AUTO 26013G21KT 10SM BKN050 BKN065 21/10 A2976 RMK AO2 SLP077 T02110100
KMCD 
33nm NW 
231635Z AUTO 25011G16KT 10SM CLR 12/10 A2980 RMK AO2 T01200098
TAF
KPLN 
27nm NW 
231158Z 2312/2412 23006KT P6SM BKN008 TEMPO 2312/2314 4SM BR BKN005 FM231400 25008KT P6SM BKN120 FM231500 25011G21KT P6SM SCT180 FM231900 26016G28KT P6SM BKN035 FM232200 28011G22KT P6SM BKN025 FM240100 28009KT P6SM BKN035 FM240400 31008KT P6SM BKN250 FM240600 32007KT P6SM BKN015
KAPN 
33nm SE 
231146Z 2312/2412 00000KT P6SM -SHRA OVC035 FM231300 20007KT P6SM BKN020 FM231400 24009KT P6SM BKN090 FM231500 27011G21KT P6SM SCT180 FM232000 28015G29KT P6SM BKN040 FM240100 29009KT P6SM BKN060 FM240600 31008KT P6SM BKN020 FM241100 34006KT P6SM BKN030
NOTAMs
Click for the latest NOTAMs
NOTAMs are issued by the DoD/FAA and will open in a separate window not controlled by AirNav.

 

 
 

Would you like to see your business listed on this page?

 If your business provides an interesting product or service to pilots, flight crews, aircraft, or users of the Leo E Goetz County Airport, you should consider listing it here.  To start the listing process, click on the button below
 
Add a business
 

Other Pages about Leo E Goetz County Airport

www.presqueislecounty.org/airport.html
Page from the Michigan Airport Directory (PDF)
 
Update a link
 
Copyright © AirNav, LLC. All rights reserved. Privacy Policy  Contact